Flag for Germany Past Weather in Geislingen an der Steige, Baden-Württemberg, Germany — Yesterday and Last 2 Weeks

Now
27 °F

Ice fog.


Feels Like: 27 °F
Forecast: 19 / 35 °F
Wind: 1 mph from Northeast

Location: Laupheim Airport

Current Time: Dec 6, 2016 at 10:51:26 pm

Latest Report: Dec 6, 2016 at 9:20 pm


Visibility: 0 mi

Pressure: 30.48 "Hg

Humidity: 100%

Dew Point: 27 °F

Location of Geislingen an der SteigeLocation

Past Weather in Geislingen an der Steige — Graph

°F

Geislingen an der Steige Temperature Yesterday

Maximum temperature yesterday: 30 °F (at 2:20 pm)
Minimum temperature yesterday: 27 °F (at 3:20 am)
Average temperature yesterday: 28 °F

High & Low Weather Summary for the Past Weeks

 TemperatureHumidityPressure
High48 °F (Nov 22, 11:20 am)100% (Nov 21, 10:20 pm)30.51 "Hg (Nov 21, 10:20 pm)
Low19 °F (Nov 30, 1:20 am)51% (Nov 29, 2:20 pm)29.71 "Hg (Nov 21, 9:20 pm)
Average35 °F89%30.17 "Hg
* Reported Nov 21 9:20 pm — Dec 6 9:20 pm, Geislingen an der Steige, Weather by CustomWeather, © 2016

Note: Actual official high and low records may vary slightly from our data, if they occured in-between our weather recording intervals... More about our weather records

Advertising

Geislingen an der Steige Weather History for the Previous 24 Hours

Scroll right to see more
 ConditionsComfort  
Time TempWeatherWind HumidityBarometerVisibility
9:20 pm
Tue, Dec 6
27 °FIce fog.1 mph100%30.48 "Hg1 mi
8:55 pm28 °FIce fog.1 mph93%30.48 "Hg1 mi
8:20 pm28 °FIce fog.1 mph93%30.48 "Hg2 mi
6:20 pm32 °FChilly.3 mph93%30.45 "HgN/A
5:20 pm34 °FPassing clouds.3 mph93%30.45 "HgN/A
4:20 pm37 °FPassing clouds.2 mph81%30.42 "HgN/A
3:20 pm43 °FPassing clouds.1 mph66%30.42 "HgN/A
2:20 pm43 °FPassing clouds.1 mph66%30.42 "HgN/A
1:20 pm41 °FPassing clouds.3 mph70%30.39 "HgN/A
12:20 pm39 °FPassing clouds.5 mph70%30.42 "HgN/A
11:20 am34 °FPassing clouds.3 mph81%30.42 "HgN/A
10:20 am28 °FScattered clouds.5 mph93%30.42 "HgN/A
9:20 am27 °FPassing clouds.3 mph93%30.39 "Hg5 mi
9:00 am25 °FPassing clouds.2 mph100%30.39 "Hg5 mi
8:20 am25 °FIce fog.2 mph93%30.39 "Hg3 mi
8:02 am25 °FIce fog.2 mph93%30.39 "Hg2 mi
7:20 am25 °FIce fog.1 mph93%30.39 "Hg1 mi
6:20 am25 °FIce fog.2 mph93%30.36 "Hg2 mi
5:20 am23 °FIce fog.1 mph100%30.36 "Hg1 mi
4:54 am25 °FIce fog.2 mph93%30.36 "Hg1 mi
4:20 am25 °FIce fog.3 mph100%30.36 "Hg1 mi
3:20 am25 °FIce fog.2 mph100%30.36 "Hg1 mi
2:20 am27 °FIce fog.3 mph93%30.36 "Hg1 mi
1:20 am27 °FIce fog.5 mph100%30.36 "Hg0 mi
12:20 am28 °FIce fog.6 mph93%30.36 "Hg0 mi
11:20 pm
Mon, Dec 5
28 °FIce fog.7 mph93%30.36 "Hg1 mi
10:20 pm28 °FIce fog.8 mph100%30.36 "Hg1 mi
Weather by CustomWeather, © 2016

See weather overviewHow to use our weather pages